Boscobel, WI

7:04 AM CDT on September 29, 2016 (GMT -0500)
Boscobel

Weather History for KOVS - December, 2013

Change the Weather History Date:

Tuesday, December 31, 2013

  Actual Average (KPDC) Record (KPDC)
Temperature  
Mean Temperature 0 °F -  
Max Temperature 8 °F 28 °F 58 °F (1965)
Min Temperature -9 °F 10 °F -20 °F (1976)
Degree Days  
Heating Degree Days 66    
Moisture  
Dew Point -3 °F    
Average Humidity 77    
Maximum Humidity 83    
Minimum Humidity 67    
Precipitation  
Precipitation 0.07 in - - ()
Sea Level Pressure  
Sea Level Pressure 30.33 in    
Wind  
Wind Speed 2 mph (WNW)    
Max Wind Speed 6 mph    
Max Gust Speed -    
Visibility 5 miles    
Events Snow    
Averages and records for this station are not official NWS values.
T = Trace of Precipitation, MM = Missing Value Source: NWS Daily Summary

Daily Weather History Graph

Daily Weather History Graph

Search for Another Location

Airport or City:

Trip Planner

Search our weather history database for the weather conditions in past years. The results will help you decide how hot, cold, wet, or windy it might be!

Date:

Astronomy

Dec. 31, 2013 Rise Set
Actual Time 7:34 AM CST 4:37 PM CST
Civil Twilight 7:02 AM CST 5:09 PM CST
Nautical Twilight 6:26 AM CST 5:45 PM CST
Astronomical Twilight 5:51 AM CST 6:20 PM CST
Moon 6:26 AM CST (12/31) 4:14 PM CST (12/31)
Length of Visible Light 10h 07m
Length of Day
9h 02m
Waning Crescent, 1% of the Moon is Illuminated
Dec 31
Waning Crescent
Jan 1
New
Jan 7
First Quarter
Jan 15
Full
Jan 23
Last Quarter

Hourly Weather History & Observations

Time (CST) Temp. Windchill Dew Point Humidity Pressure Visibility Wind Dir Wind Speed Gust Speed Precip Events Conditions
12:37 AM -9.0 °F - -14.1 °F 79% 30.21 in 5.0 mi Calm Calm - N/A   Haze
12:53 AM -7.1 °F -15.9 °F -11.0 °F 83% 30.28 in 10.0 mi WSW 3.5 mph - N/A   Clear
1:53 AM -9.9 °F - -15.0 °F 78% 30.27 in 10.0 mi Calm Calm - N/A   Clear
2:53 AM -9.0 °F -18.2 °F -15.0 °F 75% 30.28 in 10.0 mi SW 3.5 mph - N/A   Clear
3:53 AM -8.0 °F -21.0 °F -13.0 °F 79% 30.29 in 10.0 mi SW 5.8 mph - 0.00 in   Overcast
4:34 AM -8.0 °F -19.2 °F -13.0 °F 79% 30.24 in 10.0 mi SSW 4.6 mph - 0.00 in   Overcast
4:53 AM -8.0 °F -21.0 °F -13.0 °F 79% 30.30 in 8.0 mi SSW 5.8 mph - 0.00 in   Mostly Cloudy
5:07 AM -7.1 °F -15.9 °F -11.9 °F 79% 30.24 in 10.0 mi SSW 3.5 mph - N/A   Scattered Clouds
5:53 AM -6.0 °F -14.7 °F -9.9 °F 83% 30.31 in 10.0 mi SSW 3.5 mph - 0.00 in   Overcast
6:53 AM -6.0 °F -14.7 °F -11.0 °F 79% 30.31 in 9.0 mi SW 3.5 mph - N/A   Overcast
7:53 AM -6.0 °F -16.9 °F -11.0 °F 79% 30.34 in 10.0 mi SSW 4.6 mph - 0.00 in   Clear
8:53 AM -2.0 °F -10.1 °F -6.0 °F 83% 30.37 in 8.0 mi SSW 3.5 mph - N/A   Mostly Cloudy
9:53 AM 1.9 °F -9.2 °F -2.0 °F 83% 30.39 in 10.0 mi SSW 5.8 mph - 0.00 in   Overcast
10:53 AM 5.0 °F -4.1 °F -2.9 °F 70% 30.39 in 10.0 mi WNW 4.6 mph - N/A   Overcast
11:53 AM 6.1 °F -0.9 °F -2.0 °F 69% 30.37 in 10.0 mi West 3.5 mph - N/A   Overcast
12:28 PM 7.0 °F - -0.9 °F 70% 30.31 in 2.0 mi Calm Calm - 0.00 in Snow Light Snow
12:35 PM 6.1 °F -2.8 °F -0.0 °F 76% 30.30 in 1.5 mi SSW 4.6 mph - 0.00 in Snow Light Snow
12:53 PM 7.0 °F - -0.0 °F 73% 30.36 in 1.2 mi Calm Calm - 0.00 in Snow Light Snow
1:11 PM 8.1 °F - -0.0 °F 70% 30.29 in 1.5 mi Calm Calm - 0.00 in Snow Light Snow
1:27 PM 8.1 °F - -0.0 °F 70% 30.29 in 1.0 mi Calm Calm - 0.00 in Snow Light Snow
1:48 PM 6.8 °F - 1.4 °F 79% 30.29 in 0.8 mi Calm Calm - 0.00 in Snow Light Snow
1:53 PM 7.0 °F - 1.0 °F 77% 30.35 in 0.8 mi Calm Calm - 0.01 in Snow Light Snow
2:34 PM 7.0 °F - 1.0 °F 77% 30.28 in 0.5 mi Calm Calm - 0.01 in Snow Snow
2:53 PM 7.0 °F - 1.9 °F 80% 30.34 in 0.5 mi Calm Calm - 0.01 in Snow Snow
3:15 PM 7.0 °F - 1.9 °F 80% 30.29 in 0.8 mi Calm Calm - 0.01 in Snow Light Snow
3:26 PM 7.0 °F - 1.9 °F 80% 30.29 in 1.0 mi Calm Calm - 0.01 in Snow Light Snow
3:39 PM 7.0 °F - 1.9 °F 80% 30.29 in 0.5 mi Calm Calm - 0.01 in Snow Snow
3:53 PM 7.0 °F - 1.9 °F 80% 30.35 in 0.5 mi Calm Calm - 0.02 in Snow Snow
4:26 PM 7.0 °F - 1.9 °F 80% 30.30 in 0.8 mi Calm Calm - 0.01 in Snow Light Snow
4:39 PM 7.0 °F -1.7 °F 1.0 °F 77% 30.30 in 1.2 mi NNE 4.6 mph - 0.02 in Snow Light Snow
4:53 PM 7.0 °F -1.7 °F 1.0 °F 77% 30.37 in 1.5 mi North 4.6 mph - 0.02 in Snow Light Snow
5:14 PM 7.0 °F - 1.0 °F 77% 30.31 in 1.0 mi Calm Calm - 0.00 in Snow Light Snow
5:28 PM 7.0 °F -1.7 °F 1.0 °F 77% 30.32 in 1.2 mi North 4.6 mph - 0.01 in Snow Light Snow
5:53 PM 7.0 °F 0.1 °F 1.0 °F 77% 30.39 in 1.8 mi North 3.5 mph - 0.01 in Snow Light Snow
6:10 PM 7.0 °F - 1.9 °F 80% 30.33 in 2.0 mi Calm Calm - 0.00 in Snow Light Snow
6:19 PM 7.0 °F -1.7 °F 1.0 °F 77% 30.32 in 1.5 mi North 4.6 mph - 0.00 in Snow Light Snow
6:43 PM 7.0 °F 0.1 °F 1.0 °F 77% 30.33 in 3.0 mi North 3.5 mph - 0.00 in Snow Light Snow
6:49 PM 6.8 °F - 1.4 °F 79% 30.34 in 2.5 mi Calm Calm - 0.00 in Snow Light Snow
6:53 PM 7.0 °F 0.1 °F 1.0 °F 77% 30.40 in 3.0 mi North 3.5 mph - 0.00 in Snow Light Snow
7:53 PM 7.0 °F 0.1 °F 1.0 °F 77% 30.41 in 8.0 mi NNE 3.5 mph - 0.00 in Snow Light Snow
8:53 PM 7.0 °F -3.3 °F -0.0 °F 73% 30.41 in 8.0 mi NNE 5.8 mph - 0.00 in Snow Light Snow
9:53 PM 5.0 °F -5.6 °F -2.0 °F 73% 30.40 in 10.0 mi NNE 5.8 mph - 0.00 in   Overcast
10:53 PM 6.1 °F -0.9 °F -2.0 °F 69% 30.40 in 10.0 mi NNE 3.5 mph - N/A   Overcast
11:53 PM 6.1 °F -4.3 °F -2.9 °F 67% 30.40 in 10.0 mi NE 5.8 mph - N/A   Overcast